Weather History for Idaho Falls, ID

Change the Weather History Date:

Wednesday, October 3, 2012

  Actual Average Record
Temperature  
Mean Temperature 45 °F 50 °F  
Max Temperature 58 °F 66 °F 86 °F (2010)
Min Temperature 32 °F 34 °F 24 °F (1973)
Degree Days  
Heating Degree Days 20 15  
Month to date heating degree days 33 44  
Since 1 July heating degree days 188 352  
Cooling Degree Days 0 0  
Month to date cooling degree days 0 0  
Year to date cooling degree days 444 264  
Moisture  
Dew Point 22 °F    
Average Humidity 39    
Maximum Humidity 61    
Minimum Humidity 17    
Precipitation  
Precipitation 0.00 in 0.03 in 0.36 in (1974)
Month to date precipitation 0.00 0.08  
Year to date precipitation 4.32 7.90  
Sea Level Pressure  
Sea Level Pressure 30.07 in    
Wind  
Wind Speed 14 mph (NNW)    
Max Wind Speed 28 mph    
Max Gust Speed 38 mph    
Visibility 10 miles    
Events      
T = Trace of Precipitation, MM = Missing Value Source: NWS Daily Summary

Daily Weather History Graph

Daily Weather History Graph

Search for Another Location

Airport:

Trip Planner

Search our weather history database for the weather conditions in past years. The results will help you decide how hot, cold, wet, or windy it might be!

Date:

Astronomy

Oct. 03, 2012 Rise Set
Actual Time 7:28 AM MDT 7:04 PM MDT
Civil Twilight 7:00 AM MDT 7:33 PM MDT
Nautical Twilight 6:27 AM MDT 8:06 PM MDT
Astronomical Twilight 5:53 AM MDT 8:39 PM MDT
Moon 8:52 PM MDT (10/3) 11:02 AM MDT (10/3)
Length of Visible Light 12h 33m
Length of Day
11h 36m
Waning Gibbous, 88% of the Moon is Illuminated
Oct 3
Waning Gibbous
Oct 8
Last Quarter
Oct 15
New
Oct 21
First Quarter
Oct 29
Full

Hourly Weather History & Observations

Time (MDT) Temp. Windchill Dew Point Humidity Pressure Visibility Wind Dir Wind Speed Gust Speed Precip Events Conditions
12:53 AM 55.9 °F - 30.0 °F 37% 29.80 in 10.0 mi SSW 19.6 mph - N/A   Clear
1:53 AM 53.1 °F - 28.0 °F 38% 29.80 in 10.0 mi SSW 16.1 mph - N/A   Clear
2:53 AM 51.1 °F - 28.0 °F 41% 29.80 in 10.0 mi SSW 16.1 mph - N/A   Clear
3:53 AM 48.0 °F - 30.0 °F 50% 29.82 in 10.0 mi SSW 12.7 mph - N/A   Clear
4:53 AM 48.9 °F - 30.9 °F 50% 29.82 in 10.0 mi SSW 16.1 mph - N/A   Clear
5:53 AM 48.0 °F - 32.0 °F 54% 29.85 in 10.0 mi South 15.0 mph - N/A   Clear
6:53 AM 46.9 °F - 30.0 °F 52% 29.89 in 10.0 mi SSW 17.3 mph - N/A   Clear
7:53 AM 46.0 °F 39.6 °F 28.9 °F 51% 29.95 in 10.0 mi South 15.0 mph - N/A   Clear
8:53 AM 46.0 °F 39.6 °F 27.0 °F 47% 30.02 in 10.0 mi SW 15.0 mph - N/A   Clear
9:53 AM 50.0 °F - 26.1 °F 39% 30.08 in 10.0 mi NNW 12.7 mph 18.4 mph N/A   Clear
10:53 AM 52.0 °F - 19.0 °F 27% 30.12 in 6.0 mi North 21.9 mph 31.1 mph N/A   Haze
11:53 AM 53.1 °F - 14.0 °F 21% 30.14 in 8.0 mi North 18.4 mph 29.9 mph N/A   Smoke
12:53 PM 55.0 °F - 16.0 °F 22% 30.15 in 10.0 mi North 23.0 mph 31.1 mph N/A   Smoke
1:53 PM 55.9 °F - 16.0 °F 21% 30.16 in 10.0 mi North 18.4 mph 27.6 mph N/A   Smoke
2:53 PM 55.9 °F - 15.1 °F 20% 30.17 in 10.0 mi North 13.8 mph 26.5 mph N/A   Clear
3:53 PM 57.0 °F - 14.0 °F 18% 30.18 in 10.0 mi NNE 13.8 mph 26.5 mph N/A   Clear
4:53 PM 55.9 °F - 14.0 °F 19% 30.19 in 10.0 mi NNE 16.1 mph 25.3 mph N/A   Clear
5:53 PM 55.0 °F - 12.9 °F 19% 30.20 in 10.0 mi NNE 12.7 mph - N/A   Clear
6:53 PM 51.1 °F - 16.0 °F 25% 30.22 in 10.0 mi North 11.5 mph - N/A   Clear
7:53 PM 46.9 °F - 18.0 °F 32% 30.24 in 10.0 mi North 9.2 mph - N/A   Clear
8:53 PM 43.0 °F 38.2 °F 21.0 °F 42% 30.27 in 10.0 mi North 8.1 mph - N/A   Clear
9:53 PM 39.0 °F 32.3 °F 21.0 °F 49% 30.27 in 10.0 mi North 10.4 mph - N/A   Clear
10:53 PM 37.0 °F 31.0 °F 21.9 °F 54% 30.27 in 10.0 mi North 8.1 mph - N/A   Clear
11:53 PM 33.1 °F 26.9 °F 21.0 °F 61% 30.29 in 10.0 mi North 6.9 mph - N/A   Clear